Terminal Aerodrome Forecast
Issued by NWS St Louis, MO

Home | Current Version | Previous Version | Graphics & Text | Print | Product List | Glossary On
Versions: 1 2 3 4 5 6 7 8 9 10 11 12 13 14 15 16 17 18 19 20 21 22 23 24 25 26 27 28 29 30 31 32
000
FTUS43 KLSX 272000 AAA
TAFSTL
TAF AMD
KSTL 272056Z 2721/2824 36007KT P6SM BKN030
     FM280000 05005KT P6SM SCT020
     FM280600 11006KT P6SM SCT020
     FM281500 14012KT P6SM SCT250
     FM281800 15015G25KT P6SM BKN250=

USA.gov is the U.S. government's official web portal to all federal, state and local government web resources and services.